Regional Weather Roundup
Issued by NWS

Home | Current Version | Previous Version | Text Only | Print | Product List | Glossary On
Versions: 1 2 3 4 5 6 7 8 9 10 11 12 13 14 15 16 17 18 19 20 21 22 23 24 25 26 27
000
ASUS42 KKEY 311410
RWRKEY

FLORIDA REGIONAL WEATHER ROUNDUP FOR THE FLORIDA KEYS
NATIONAL WEATHER SERVICE KEY WEST FLORIDA
1000 AM EDT TUE MAY 31 2016

...SOUTH FLORIDA AND THE KEYS...

CITY           SKY/WX    TMP DP  RH WIND       PRES   REMARKS
FORT MYERS     SUNNY     81  70  69 SE3       29.98R
SW REGIONAL AP SUNNY     82  70  66 E5        29.98R
NAPLES         SUNNY     83  71  67 VRB3      29.98R
MIAMI          PTSUNNY   84  72  67 SE6       29.98R
WEST KENDALL   MOSUNNY   83  72  69 VRB3      29.97S
HOMESTEAD      MOSUNNY   83  72  70 VRB2      29.97R
MARATHON       LGT RAIN  83  70  64 CALM      29.96R
BOCA CHICA NAS MOSUNNY   85  72  65 S6        29.97R HX  91
KEY WEST INTL  MOSUNNY   84  72  67 SE5       29.97R

...INTERNATIONAL WEATHER...

CITY           SKY/WX    TMP DP  RH WIND       PRES   REMARKS
NASSAU BAHAMAS MOSUNNY   86  77  74 CALM      29.98R THUNDER HX  97
CANCUN MEXICO  MOSUNNY   86  73  66 E10       29.92R HX  93
COZUMEL MEXICO MOSUNNY   79  75  89 SE6       29.91S

ADJACENT COASTAL WATERS...

STATION/POSITION TIME  SKY/WX   TEMP    WIND        PRES    WAVE
                                AIR SEA DIR/SP/G            HT/PER
                 (UTC)          (F)     (DEG/KT/KT) (MB)    (FT/S)
PULASKI SHOAL LI 1400            82      60/  6/  7 1014.8R
SAND KEY         1350            80     210/  7/  9 1015.3R
SOMBRERO KEY     NOT AVBL
LONG KEY         1300            82 86   CALM  /  1 1014.8R
MOLASSES REEF    NOT AVBL
FOWEY ROCKS      1400            81 84   70/  3/  3 1015.6R

$$




USA.gov is the U.S. government's official web portal to all federal, state and local government web resources and services.